sat.trackr.live / text

‹ back to catalog

ARASE (ERG)

NORAD 41896 · 2016-080A

PAYLOAD ACTIVE UNKNOWN

§ Identity

Operator
Country
JPN
Launch date
2016-12-20
Launch site
KSCUT
Launch vehicle
Mass (kg)
RCS (m²)
1.34

External: N2YO · Heavens-Above · Gunter

§ Orbital elements

Epoch: 2026-05-24T16:15:17.812800Z

Period
558.90 min
Inclination
31.9400°
Eccentricity
0.6992782
Mean motion
2.57649789 rev/d
Perigee alt
380.8 km
Apogee alt
31,814.5 km
Semi-major
22,475.8 km
B*
1.8995e-3
RAAN
17.6224°
Arg perigee
33.1321°
Mean anomaly
355.6610°
Rev number
8,767

§ Raw data

ARASE (ERG)1 41896U 16080A   26144.67728950  .00000611  00000+0  18995-2 0  99952 41896  31.9400  17.6224 6992782  33.1321 355.6610  2.57649789 87676

JSON: /api/v1/satellites/41896 · /tle

For live sub-satellite position, see the globe view (requires WebGL).

§ Visibility from observer

Set your observer location to see the next 7 days of passes ≥ 10°. The values pass through the URL so the page stays shareable.

No JS? Fill the form by hand. The geolocation button needs JavaScript.